Location: Caltech
(34.1382°N, 118.1253°W)
Time: 00:37:43
(UTC-07:00)

Cosmos 2237 Rocket - Visible Passes

Search period start: 28 May 2018 00:00
Search period end: 07 June 2018 00:00
Orbit: 834 x 851 km, 71.0° (Epoch: 27 May)

Date Brightness Start Highest point End Pass type
(mag) Time Alt. Az. Time Alt. Az. Time Alt. Az.
28 May 3.2 00:01:38 10° NNW 00:05:34 42° NW 00:05:34 42° NW visible
28 May 4.0 22:04:17 10° NNE 22:07:54 17° NE 22:09:14 16° ENE visible
28 May 2.9 23:46:46 10° NNW 23:51:03 48° NW 23:51:03 48° NW visible
29 May 4.1 21:49:34 10° NNE 21:53:01 16° NE 21:54:45 14° ENE visible
29 May 2.7 23:31:54 10° NNW 23:36:35 55° WNW 23:36:35 55° WNW visible
30 May 4.1 21:34:53 10° NNE 21:38:08 15° NE 21:40:18 13° E visible
30 May 2.4 23:17:03 10° NNW 23:22:08 64° WNW 23:22:08 64° WNW visible
31 May 4.2 21:20:11 10° NNE 21:23:15 15° NE 21:25:54 11° E visible
31 May 2.2 23:02:11 10° NNW 23:07:43 72° W 23:07:43 72° W visible
01 Jun 4.2 21:05:31 10° NNE 21:08:22 14° NE 21:11:12 10° E visible
01 Jun 2.1 22:47:19 10° NNW 22:53:01 77° WSW 22:53:21 74° SW visible
02 Jun 4.2 20:50:52 10° NNE 20:53:28 13° NE 20:56:04 10° E visible
02 Jun 2.1 22:32:28 10° NNW 22:38:11 81° WSW 22:39:00 66° S visible
03 Jun 4.2 20:36:15 10° NNE 20:38:35 12° NE 20:40:52 10° ENE visible
03 Jun 2.1 22:17:37 10° NNW 22:23:20 85° WSW 22:24:42 54° SSE visible
04 Jun 4.3 20:21:42 10° NNE 20:23:41 12° NE 20:25:40 10° ENE visible
04 Jun 2.1 22:02:46 10° NNW 22:08:29 89° W 22:10:27 43° SSE visible
05 Jun 2.1 21:47:55 10° NNW 21:53:39 86° ENE 21:56:14 34° SSE visible
06 Jun 2.2 21:33:04 10° NNW 21:38:49 82° ENE 21:42:03 27° SSE visible
06 Jun 4.7 23:21:59 10° W 23:22:01 10° W 23:22:03 10° W visible
